Tracking 20621 objects as of 30-Mar-2020
HD Live streaming from Space Station
objects crossing your sky now

ARIANE 2 DEB

Track ARIANE 2 DEB now!
10-day predictions


NORAD ID: 40784
Int'l Code: 1989-006CD
Perigee: 207.6 km
Apogee: 12,289.5 km
Inclination: 8.2 °
Period: 235.1 minutes
Semi major axis: 12619 km
RCS: Unknown
Launch date: January 27, 1989
Source: France (FR)
Launch site: FRENCH GUIANA (FRGUI)

Note: This is SATELLITE DEBRIS
aabbcc
Your satellite tracking list
Your tracking list is empty




NASA's NSSDC Master Catalog

Two Line Element Set (TLE):
1 40784U 89006CD  19165.79294556 +.00368873 +00000-0 +62352-2 0  9990
2 40784 008.2412 046.4860 4786965 125.5460 288.8866 06.12401229181821
Source of the keplerian elements: AFSPC